Weather in Rzhavets

Russia / Oryol Oblast     53°00′31″N   36°46′18″E
temp.,
°C
wind,
m/s
gust,
m/s
humid.,
%
clouds,
%
prec.,
mm/h
press.,
hPa
HPBL,
m
19 june, sat
sat1900:00+14e37920 0.0 1026114
03:00+13e34930 0.0 102670
06:00+15e36913 0.0 1026149
09:00+20ese45785 0.0 1026444
12:00+23ese456817 0.0 10261212
15:00+24se44623 0.0 10241318
18:00+24se34725 0.0 10241122
21:00+19se33900 0.0 102439
20 june, sun
sun2000:00+16se33900 0.0 102440
03:00+14ese23910 0.0 102528
06:00+15ese25880 0.0 1024130
09:00+20ese45720 0.0 1024497
12:00+23se45605 0.0 1023941
15:00+24ese455798 0.0 10221019
18:00+24ese467184 0.0 1021793
21:00+19ese3387100 0.0 102141
21 june, mon
mon2100:00+17ese3789100 0.0 1021111
03:00+17ese378852 0.0 1021139
06:00+17e498998 0.0 1020189
09:00+22ese61073100 0.0 1020454
12:00+25ese6764100 0.0 1020630
15:00+25ese5871100 0.0 1019571
18:00+25ese4877100 0.0 1019527
21:00+21ese4108839 0.0 1019196
22 june, tue
tue2200:00+19ese38915 0.0 1020143
03:00+18ese4109198 0.0 1020164
06:00+19ese411873 0.0 1020244
09:00+24se6117198 0.0 1020454
12:00+27se696214 0.0 1020761
15:00+28se686431 0.0 10201002
18:00+27ese597259 0.0 1019653
21:00+23ese4108955 0.0 1020196
23 june, wed
wed2300:00+21se399049 0.0 1020144
03:00+20ese488758 0.0 1020130
06:00+20ese398511 0.0 1020209
09:00+25ese59715 0.0 1020412
12:00+28e57585 0.0 1020778
15:00+29ese56570 0.0 10201160
18:00+28e477195 0.0 1019423
21:00+24e3488100 0.0 102060